This is the latest recevied weather packets stored in our database for station/object DL4NBA-1. If no packets are shown the sender has not sent any weather packets the latest 10 day(s).
| Time | Temp. | Humidity | Pressure | Rain* | Wind** | Luminosity | Snow |
|---|---|---|---|---|---|---|---|
| 1777713838 | 23.33° C | - | - | 0 mm | 3.58 m/s, 122° | - | - |
| 1777713535 | 22.78° C | - | - | 0 mm | 3.58 m/s, 118° | - | - |
| 1777713237 | 22.78° C | - | - | 0 mm | 2.68 m/s, 117° | - | - |
| 1777712938 | 22.22° C | - | - | 0 mm | 4.92 m/s, 142° | - | - |
| 1777712640 | 22.22° C | - | - | 0 mm | 4.92 m/s, 120° | - | - |
| 1777712341 | 22.22° C | - | - | 0 mm | 2.68 m/s, 138° | - | - |
| 1777711741 | 21.11° C | - | - | 0 mm | 4.92 m/s, 105° | - | - |
| 1777711442 | 21.11° C | - | - | 0 mm | 4.02 m/s, 146° | - | - |
| 1777710845 | 20.56° C | - | - | 0 mm | 4.92 m/s, 111° | - | - |
| 1777710543 | 20° C | - | - | 0 mm | 4.02 m/s, 104° | - | - |
| 1777710242 | 20° C | - | - | 0 mm | 5.36 m/s, 125° | - | - |
| 1777709645 | 20° C | - | - | 0 mm | 3.58 m/s, 141° | - | - |
| 1777709347 | 20° C | - | - | 0 mm | 3.58 m/s, 90° | - | - |
| 1777709044 | 19.44° C | - | - | 0 mm | 4.47 m/s, 132° | - | - |
| 1777708446 | 18.89° C | - | - | 0 mm | 4.47 m/s, 83° | - | - |
| 1777708148 | 18.89° C | - | - | 0 mm | 2.68 m/s, 131° | - | - |
| 1777707849 | 18.33° C | - | - | 0 mm | 2.24 m/s, 120° | - | - |
| 1777707547 | 18.33° C | - | - | 0 mm | 2.24 m/s, 145° | - | - |
| 1777707248 | 17.78° C | - | - | 0 mm | 2.24 m/s, 91° | - | - |
| 1777706950 | 17.78° C | - | - | 0 mm | 2.68 m/s, 75° | - | - |
| 1777705454 | 16.67° C | - | - | 0 mm | 2.24 m/s, 156° | - | - |
| 1777705156 | 16.11° C | - | - | 0 mm | 0.45 m/s, 89° | - | - |
| 1777704556 | 15.56° C | - | - | 0 mm | 1.79 m/s, 58° | - | - |
| 1777703959 | 14.44° C | - | - | 0 mm | 0.89 m/s, 108° | - | - |
| 1777703362 | 13.33° C | - | - | 0 mm | 0 m/s | - | - |
* Rain latest hour (hover to see other rain measurements)
** Current wind speed in m/s (hover to see current wind gust speed)